Location: Brienzwiler
(46.7508°N, 8.1014°E)
Time: 15:37:20
(UTC+00:00)

Cosmos 2084 - Pass Details

Date: 05 July 2020
Orbit: 571 x 612 km, 62.8° (Epoch: 11 August)

Event Time Altitude Azimuth Distance (km) Brightness Sun altitude
Rises 21:39:28 0° 317° (NW) 2,884 8.5 -16.0°
Reaches altitude 10° 21:41:46 10° 314° (NW) 1,974 7.3 -16.2°
Maximum altitude 21:46:10 60° 235° (SW) 699 3.7 -16.5°
Enters shadow 21:48:03 32° 167° (SSE) 1,052 4.2 -16.7°
